| time (UTC) | temp F | wind direction | speed MPH | gust MPH | rain 1hr in | rain 24hr in | rain mn in | humidity % | barometer mb |
| 20260906104404 | 90 | 292 | 0.0 | 6.0 | 0.00 | 0.00 | 0.00 | 37 | 1020.6 |
| 20260906102905 | 89 | 158 | 3.0 | 6.0 | 0.00 | 0.00 | 0.00 | 39 | 1020.4 |
| 20260906101405 | 89 | 225 | 0.0 | 6.0 | 0.00 | 0.00 | 0.00 | 38 | 1020.7 |
| 20260906095905 | 87 | 158 | 3.0 | 6.0 | 0.00 | 0.00 | 0.00 | 40 | 1020.4 |
| 20260906094405 | 87 | 202 | 3.0 | 6.0 | 0.00 | 0.00 | 0.00 | 41 | 1020.5 |
| 20260906092904 | 84 | 158 | 3.0 | 6.0 | 0.00 | 0.00 | 0.00 | 44 | 1020.3 |
| 20260906091405 | 85 | 158 | 3.0 | 6.0 | 0.00 | 0.00 | 0.00 | 45 | 1020.2 |
| 20260906085905 | 84 | 135 | 2.0 | 6.0 | 0.00 | 0.00 | 0.00 | 46 | 1020.0 |
| 20260906084405 | 82 | 180 | 3.0 | 6.0 | 0.00 | 0.00 | 0.00 | 47 | 1020.1 |
| 20260906082905 | 81 | 180 | 3.0 | 6.0 | 0.00 | 0.00 | 0.00 | 49 | 1019.9 |
| 20260906081405 | 80 | 180 | 3.0 | 6.0 | 0.00 | 0.00 | 0.00 | 49 | 1020.0 |
| 20260906075905 | 79 | 180 | 3.0 | 4.0 | 0.00 | 0.00 | 0.00 | 50 | 1019.9 |
| 20260906074405 | 78 | 180 | 2.0 | 6.0 | 0.00 | 0.00 | 0.00 | 52 | 1019.9 |
| 20260906072904 | 77 | 158 | 3.0 | 6.0 | 0.00 | 0.00 | 0.00 | 53 | 1019.8 |
| 20260906071404 | 76 | 180 | 2.0 | 4.0 | 0.00 | 0.00 | 0.00 | 54 | 1019.6 |
| 20260906065903 | 75 | 180 | 2.0 | 6.0 | 0.00 | 0.00 | 0.00 | 55 | 1019.6 |
| 20260906064403 | 74 | 158 | 2.0 | 4.0 | 0.00 | 0.00 | 0.00 | 55 | 1019.3 |
| 20260906062903 | 74 | 180 | 3.0 | 6.0 | 0.00 | 0.00 | 0.00 | 56 | 1019.4 |
| 20260906061404 | 73 | 135 | 1.0 | 3.0 | 0.00 | 0.00 | 0.00 | 57 | 1019.3 |
| 20260906055903 | 73 | 180 | 1.0 | 2.0 | 0.00 | 0.00 | 0.00 | 59 | 1019.0 |
| 20260906054404 | 72 | 180 | 0.0 | 0.0 | 0.00 | 0.00 | 0.00 | 63 | 1018.9 |
| 20260906052903 | 72 | 180 | 0.0 | 1.0 | 0.00 | 0.00 | 0.00 | 63 | 1019.0 |
| 20260906051404 | 72 | 180 | 0.0 | 1.0 | 0.00 | 0.00 | 0.00 | 64 | 1018.7 |
| 20260906045902 | 73 | 292 | 0.0 | 0.0 | 0.00 | 0.00 | 0.00 | 62 | 1018.7 |
| 20260906044403 | 73 | 292 | 0.0 | 1.0 | 0.00 | 0.00 | 0.00 | 62 | 1018.8 |
| 20260906042903 | 74 | 292 | 2.0 | 3.0 | 0.00 | 0.00 | 0.00 | 61 | 1018.5 |
| 20260906041403 | 74 | 292 | 2.0 | 4.0 | 0.00 | 0.00 | 0.00 | 61 | 1018.7 |
| 20260906035903 | 74 | 315 | 3.0 | 4.0 | 0.00 | 0.00 | 0.00 | 58 | 1018.8 |
| 20260906034404 | 75 | 270 | 0.0 | 3.0 | 0.00 | 0.00 | 0.00 | 56 | 1018.8 |
| 20260906032903 | 75 | 292 | 1.0 | 4.0 | 0.00 | 0.00 | 0.00 | 55 | 1018.7 |
| 20260906031402 | 75 | 315 | 2.0 | 4.0 | 0.00 | 0.00 | 0.00 | 55 | 1018.8 |
| 20260906025903 | 75 | 292 | 2.0 | 6.0 | 0.00 | 0.00 | 0.00 | 57 | 1018.8 |
| 20260906024403 | 76 | 292 | 3.0 | 4.0 | 0.00 | 0.00 | 0.00 | 56 | 1018.7 |
| 20260906022903 | 76 | 292 | 2.0 | 4.0 | 0.00 | 0.00 | 0.00 | 55 | 1018.8 |
| 20260906021402 | 76 | 315 | 3.0 | 4.0 | 0.00 | 0.00 | 0.00 | 55 | 1018.7 |
| 20260906015903 | 78 | 292 | 3.0 | 6.0 | 0.00 | 0.00 | 0.00 | 54 | 1019.0 |
| 20260906014402 | 78 | 315 | 2.0 | 3.0 | 0.00 | 0.00 | 0.00 | 55 | 1018.9 |
| 20260906012901 | 78 | 292 | 1.0 | 3.0 | 0.00 | 0.00 | 0.00 | 52 | 1019.2 |
| 20260906011402 | 78 | 292 | 1.0 | 2.0 | 0.00 | 0.00 | 0.00 | 50 | 1019.2 |
| 20260906005903 | 77 | 292 | 0.0 | 1.0 | 0.00 | 0.00 | 0.00 | 51 | 1019.2 |
| 20260906004402 | 77 | 292 | 0.0 | 1.0 | 0.00 | 0.00 | 0.00 | 50 | 1019.3 |
| 20260906002902 | 77 | 292 | 0.0 | 2.0 | 0.00 | 0.00 | 0.00 | 49 | 1019.0 |
| 20260906001401 | 78 | 292 | 1.0 | 2.0 | 0.00 | 0.00 | 0.00 | 49 | 1019.2 |
| 20260905235902 | 78 | 315 | 1.0 | 3.0 | 0.00 | 0.00 | 0.00 | 48 | 1019.5 |
| 20260905234402 | 80 | 180 | 0.0 | 4.0 | 0.00 | 0.00 | 0.00 | 46 | 1019.1 |
| 20260905232901 | 80 | 180 | 2.0 | 4.0 | 0.00 | 0.00 | 0.00 | 46 | 1018.8 |
| 20260905231402 | 80 | 180 | 1.0 | 6.0 | 0.00 | 0.00 | 0.00 | 46 | 1019.0 |
| 20260905225902 | 80 | 202 | 2.0 | 4.0 | 0.00 | 0.00 | 0.00 | 46 | 1018.9 |
| 20260905224402 | 80 | 202 | 1.0 | 6.0 | 0.00 | 0.00 | 0.00 | 46 | 1019.0 |
| 20260905222901 | 80 | 180 | 1.0 | 4.0 | 0.00 | 0.00 | 0.00 | 46 | 1019.1 |
| 20260905221401 | 80 | 158 | 1.0 | 4.0 | 0.00 | 0.00 | 0.00 | 45 | 1018.8 |
| 20260905215902 | 81 | 180 | 3.0 | 6.0 | 0.00 | 0.00 | 0.00 | 44 | 1019.1 |
| 20260905214401 | 82 | 180 | 3.0 | 6.0 | 0.00 | 0.00 | 0.00 | 43 | 1019.1 |
| 20260905212901 | 83 | 158 | 3.0 | 6.0 | 0.00 | 0.00 | 0.00 | 43 | 1019.0 |
| 20260905211402 | 83 | 180 | 3.0 | 6.0 | 0.00 | 0.00 | 0.00 | 43 | 1019.2 |
| 20260905205901 | 83 | 180 | 3.0 | 4.0 | 0.00 | 0.00 | 0.00 | 43 | 1019.0 |
| 20260905204401 | 83 | 158 | 3.0 | 4.0 | 0.00 | 0.00 | 0.00 | 43 | 1018.8 |
| 20260905202900 | 84 | 158 | 2.0 | 6.0 | 0.00 | 0.00 | 0.00 | 43 | 1018.8 |
| 20260905201400 | 84 | 135 | 3.0 | 6.0 | 0.00 | 0.00 | 0.00 | 42 | 1018.5 |
| 20260905195901 | 84 | 135 | 3.0 | 6.0 | 0.00 | 0.00 | 0.00 | 42 | 1018.5 |
| 20260905194403 | 85 | 135 | 2.0 | 6.0 | 0.00 | 0.00 | 0.00 | 41 | 1018.4 |
| 20260905192901 | 86 | 180 | 3.0 | 8.0 | 0.00 | 0.00 | 0.00 | 40 | 1018.5 |
| 20260905191400 | 87 | 158 | 4.0 | 10.0 | 0.00 | 0.00 | 0.00 | 39 | 1018.2 |
| 20260905185900 | 88 | 158 | 4.0 | 10.0 | 0.00 | 0.00 | 0.00 | 38 | 1018.0 |
| 20260905184401 | 90 | 180 | 5.0 | 9.0 | 0.00 | 0.00 | 0.00 | 35 | 1017.9 |
| 20260905182859 | 91 | 158 | 2.0 | 3.0 | 0.00 | 0.00 | 0.00 | 35 | 1017.7 |
| 20260905181400 | 92 | 158 | 1.0 | 3.0 | 0.00 | 0.00 | 0.00 | 34 | 1017.8 |
| 20260905175900 | 93 | 180 | 2.0 | 3.0 | 0.00 | 0.00 | 0.00 | 32 | 1017.8 |
| 20260905174400 | 93 | 180 | 2.0 | 4.0 | 0.00 | 0.00 | 0.00 | 32 | 1017.8 |
| 20260905172901 | 94 | 158 | 1.0 | 6.0 | 0.00 | 0.00 | 0.00 | 31 | 1018.0 |
| 20260905171359 | 94 | 292 | 2.0 | 6.0 | 0.00 | 0.00 | 0.00 | 31 | 1018.2 |
| 20260905165900 | 93 | 292 | 3.0 | 6.0 | 0.00 | 0.00 | 0.00 | 32 | 1018.2 |
| 20260905164400 | 94 | 180 | 2.0 | 8.0 | 0.00 | 0.00 | 0.00 | 31 | 1017.9 |
| 20260905162901 | 94 | 158 | 6.0 | 10.0 | 0.00 | 0.00 | 0.00 | 31 | 1017.8 |
| 20260905161401 | 94 | 180 | 1.0 | 6.0 | 0.00 | 0.00 | 0.00 | 32 | 1018.0 |
| 20260905155900 | 92 | 225 | 3.0 | 8.0 | 0.00 | 0.00 | 0.00 | 33 | 1018.1 |
| 20260905154400 | 93 | 135 | 6.0 | 11.0 | 0.00 | 0.00 | 0.00 | 32 | 1018.1 |
| 20260905152900 | 92 | 180 | 3.0 | 11.0 | 0.00 | 0.00 | 0.00 | 32 | 1018.1 |
| 20260905151359 | 93 | 180 | 7.0 | 10.0 | 0.00 | 0.00 | 0.00 | 31 | 1018.1 |
| 20260905145900 | 93 | 158 | 2.0 | 12.0 | 0.00 | 0.00 | 0.00 | 31 | 1018.2 |
| 20260905144400 | 93 | 180 | 5.0 | 12.0 | 0.00 | 0.00 | 0.00 | 31 | 1018.5 |
| 20260905142900 | 93 | 135 | 8.0 | 15.0 | 0.00 | 0.00 | 0.00 | 31 | 1018.5 |
| 20260905141359 | 93 | 180 | 9.0 | 13.0 | 0.00 | 0.00 | 0.00 | 31 | 1018.7 |
| 20260905135858 | 92 | 158 | 7.0 | 12.0 | 0.00 | 0.00 | 0.00 | 33 | 1018.7 |
| 20260905134400 | 93 | 180 | 9.0 | 15.0 | 0.00 | 0.00 | 0.00 | 33 | 1018.8 |
| 20260905132858 | 90 | 158 | 8.0 | 13.0 | 0.00 | 0.00 | 0.00 | 35 | 1019.0 |
| 20260905131359 | 90 | 158 | 7.0 | 12.0 | 0.00 | 0.00 | 0.00 | 35 | 1018.9 |
| 20260905125858 | 90 | 180 | 7.0 | 12.0 | 0.00 | 0.00 | 0.00 | 35 | 1019.0 |
| 20260905124358 | 89 | 180 | 7.0 | 15.0 | 0.00 | 0.00 | 0.00 | 36 | 1019.2 |
| 20260905122900 | 89 | 180 | 9.0 | 17.0 | 0.00 | 0.00 | 0.00 | 37 | 1019.4 |
| 20260905121358 | 89 | 135 | 6.0 | 15.0 | 0.00 | 0.00 | 0.00 | 39 | 1019.5 |
| 20260905115859 | 87 | 135 | 3.0 | 6.0 | 0.00 | 0.00 | 0.00 | 41 | 1019.7 |
| 20260905114359 | 86 | 180 | 5.0 | 12.0 | 0.00 | 0.00 | 0.00 | 42 | 1019.8 |
| 20260905112859 | 87 | 158 | 3.0 | 8.0 | 0.00 | 0.00 | 0.00 | 42 | 1019.8 |
| 20260905111359 | 86 | 135 | 6.0 | 10.0 | 0.00 | 0.00 | 0.00 | 42 | 1020.0 |
| 20260905105858 | 85 | 180 | 5.0 | 8.0 | 0.00 | 0.00 | 0.00 | 43 | 1020.1 |